Time,TemperatureF,DewpointF,PressureIn,WindDirection,WindDirectionDegrees,WindSpeedMPH,WindSpeedGustMPH,Humidity,HourlyPrecipIn,Conditions,Clouds,dailyrainin,SoftwareType,DateUTC
2013-08-30 00:12:00,77.0,73.0,30.00,East,89,0.0,0.0,88,0.00,,,0.00,,2013-08-30 05:12:00,
2013-08-30 00:23:00,77.0,73.0,30.00,East,89,0.0,0.0,88,0.00,,,0.00,,2013-08-30 05:23:00,
2013-08-30 00:42:00,76.0,73.0,30.00,East,89,0.0,0.0,89,0.00,,,0.00,,2013-08-30 05:42:00,
2013-08-30 00:52:00,76.0,73.0,30.00,East,89,0.0,0.0,89,0.00,,,0.00,,2013-08-30 05:52:00,
2013-08-30 01:12:00,76.0,73.0,30.00,East,89,0.0,0.0,90,0.00,,,0.00,,2013-08-30 06:12:00,
2013-08-30 01:22:00,75.0,72.0,29.99,East,89,0.0,0.0,90,0.00,,,0.00,,2013-08-30 06:22:00,
2013-08-30 01:42:00,75.0,72.0,29.99,East,89,0.0,0.0,91,0.00,,,0.00,,2013-08-30 06:42:00,
2013-08-30 01:53:00,75.0,73.0,29.99,East,89,0.0,0.0,92,0.00,,,0.00,,2013-08-30 06:53:00,
2013-08-30 02:12:00,75.0,73.0,29.99,East,89,0.0,0.0,92,0.00,,,0.00,,2013-08-30 07:12:00,
2013-08-30 02:21:00,75.0,73.0,29.99,East,89,0.0,0.0,93,0.00,,,0.00,,2013-08-30 07:21:00,
2013-08-30 02:43:00,74.0,72.0,29.98,East,89,0.0,0.0,93,0.00,,,0.00,,2013-08-30 07:43:00,
2013-08-30 02:53:00,74.0,72.0,29.99,East,89,0.0,0.0,93,0.00,,,0.00,,2013-08-30 07:53:00,
2013-08-30 03:11:00,74.0,72.0,29.99,East,89,0.0,0.0,94,0.00,,,0.00,,2013-08-30 08:11:00,
2013-08-30 03:22:00,74.0,72.0,29.99,East,89,0.0,0.0,94,0.00,,,0.00,,2013-08-30 08:22:00,
2013-08-30 03:42:00,74.0,72.0,29.99,East,89,0.0,0.0,94,0.00,,,0.00,,2013-08-30 08:42:00,
2013-08-30 03:52:00,73.0,71.0,29.99,East,89,0.0,0.0,94,0.00,,,0.00,,2013-08-30 08:52:00,
2013-08-30 04:12:00,73.0,71.0,29.99,East,89,0.0,0.0,95,0.00,,,0.00,,2013-08-30 09:12:00,
2013-08-30 04:22:00,73.0,71.0,29.99,East,89,0.0,0.0,95,0.00,,,0.00,,2013-08-30 09:22:00,
2013-08-30 04:44:00,73.0,71.0,30.00,East,89,0.0,0.0,95,0.00,,,0.00,,2013-08-30 09:44:00,
2013-08-30 04:53:00,73.0,71.0,29.99,East,89,0.0,0.0,95,0.00,,,0.00,,2013-08-30 09:53:00,
2013-08-30 05:12:00,73.0,71.0,29.99,East,89,0.0,0.0,95,0.00,,,0.00,,2013-08-30 10:12:00,
2013-08-30 05:23:00,72.0,70.0,30.00,East,89,0.0,0.0,95,0.00,,,0.00,,2013-08-30 10:23:00,
2013-08-30 05:43:00,72.0,70.0,30.00,East,89,0.0,0.0,95,0.00,,,0.00,,2013-08-30 10:43:00,
2013-08-30 05:53:00,72.0,70.0,30.00,East,89,0.0,0.0,95,0.00,,,0.00,,2013-08-30 10:53:00,
2013-08-30 06:12:00,72.0,71.0,30.00,East,89,0.0,0.0,96,0.00,,,0.00,,2013-08-30 11:12:00,
2013-08-30 06:22:00,72.0,71.0,30.01,East,89,0.0,0.0,96,0.00,,,0.00,,2013-08-30 11:22:00,
2013-08-30 06:42:00,72.0,71.0,30.01,East,89,0.0,0.0,96,0.00,,,0.00,,2013-08-30 11:42:00,
2013-08-30 06:52:00,72.0,71.0,30.02,East,89,0.0,0.0,96,0.00,,,0.00,,2013-08-30 11:52:00,
2013-08-30 07:12:00,72.0,71.0,30.02,East,89,0.0,0.0,96,0.00,,,0.00,,2013-08-30 12:12:00,
2013-08-30 07:21:00,72.0,71.0,30.02,East,89,0.0,0.0,96,0.00,,,0.00,,2013-08-30 12:21:00,
2013-08-30 07:42:00,72.0,71.0,30.03,East,89,0.0,0.0,96,0.00,,,0.00,,2013-08-30 12:42:00,
2013-08-30 07:52:00,73.0,72.0,30.03,East,89,0.0,0.0,97,0.00,,,0.00,,2013-08-30 12:52:00,
2013-08-30 08:11:00,73.0,72.0,30.03,East,89,0.0,0.0,97,0.00,,,0.00,,2013-08-30 13:11:00,
2013-08-30 08:21:00,75.0,74.0,30.03,East,89,0.0,0.0,97,0.00,,,0.00,,2013-08-30 13:21:00,
2013-08-30 08:52:00,77.0,74.0,30.03,East,89,0.0,0.0,90,0.00,,,0.00,,2013-08-30 13:52:00,
2013-08-30 09:11:00,80.0,75.0,30.03,SW,229,0.0,2.0,84,0.00,,,0.00,,2013-08-30 14:11:00,
2013-08-30 09:21:00,82.0,74.0,30.03,SW,218,0.0,3.0,78,0.00,,,0.00,,2013-08-30 14:21:00,
2013-08-30 09:42:00,84.0,75.0,30.04,SE,145,0.0,1.0,74,0.00,,,0.00,,2013-08-30 14:42:00,
2013-08-30 09:52:00,86.0,75.0,30.03,SW,223,0.0,2.0,70,0.00,,,0.00,,2013-08-30 14:52:00,
2013-08-30 10:11:00,87.0,74.0,30.04,South,187,0.0,2.0,66,0.00,,,0.00,,2013-08-30 15:11:00,
2013-08-30 10:22:00,89.0,74.0,30.04,SSW,210,0.0,3.0,61,0.00,,,0.00,,2013-08-30 15:22:00,
2013-08-30 10:43:00,91.0,74.0,30.03,South,169,0.0,1.0,58,0.00,,,0.00,,2013-08-30 15:43:00,
2013-08-30 10:54:00,92.0,73.0,30.03,SSW,206,1.0,2.0,55,0.00,,,0.00,,2013-08-30 15:54:00,
2013-08-30 11:13:00,93.0,74.0,30.03,SE,139,0.0,1.0,55,0.00,,,0.00,,2013-08-30 16:13:00,
2013-08-30 11:25:00,93.0,73.0,30.03,SW,226,0.0,3.0,53,0.00,,,0.00,,2013-08-30 16:25:00,
2013-08-30 11:43:00,94.0,71.0,30.02,SE,142,1.0,3.0,48,0.00,,,0.00,,2013-08-30 16:43:00,
2013-08-30 11:53:00,95.0,72.0,30.01,SW,224,1.0,3.0,48,0.00,,,0.00,,2013-08-30 16:53:00,
2013-08-30 12:13:00,95.0,72.0,30.01,SW,215,0.0,2.0,48,0.00,,,0.00,,2013-08-30 17:13:00,
2013-08-30 12:23:00,94.0,72.0,30.01,SW,226,1.0,4.0,49,0.00,,,0.00,,2013-08-30 17:23:00,
2013-08-30 12:42:00,93.0,72.0,30.00,SSW,200,0.0,1.0,50,0.00,,,0.00,,2013-08-30 17:42:00,
2013-08-30 12:53:00,95.0,72.0,30.00,ENE,66,1.0,3.0,47,0.00,,,0.00,,2013-08-30 17:53:00,
2013-08-30 13:12:00,94.0,71.0,30.00,SSW,193,0.0,2.0,47,0.00,,,0.00,,2013-08-30 18:12:00,
2013-08-30 13:22:00,97.0,73.0,29.99,SW,217,1.0,4.0,46,0.00,,,0.00,,2013-08-30 18:22:00,
2013-08-30 13:42:00,96.0,71.0,29.99,SSW,198,0.0,3.0,45,0.00,,,0.00,,2013-08-30 18:42:00,
2013-08-30 13:52:00,96.0,71.0,29.98,WSW,246,1.0,2.0,44,0.00,,,0.00,,2013-08-30 18:52:00,
2013-08-30 14:12:00,97.0,70.0,29.98,West,269,1.0,2.0,42,0.00,,,0.00,,2013-08-30 19:12:00,
2013-08-30 14:22:00,98.0,72.0,29.98,SW,219,0.0,3.0,43,0.00,,,0.00,,2013-08-30 19:22:00,
2013-08-30 14:53:00,97.0,71.0,29.96,SW,217,0.0,3.0,44,0.00,,,0.00,,2013-08-30 19:53:00,
2013-08-30 15:11:00,99.0,71.0,29.96,WSW,248,0.0,2.0,41,0.00,,,0.00,,2013-08-30 20:11:00,
2013-08-30 15:22:00,98.0,70.0,29.95,SE,132,0.0,2.0,41,0.00,,,0.00,,2013-08-30 20:22:00,
2013-08-30 15:52:00,99.0,71.0,29.94,WSW,245,0.0,2.0,41,0.00,,,0.00,,2013-08-30 20:52:00,
2013-08-30 16:11:00,99.0,70.0,29.93,WNW,290,0.0,1.0,39,0.00,,,0.00,,2013-08-30 21:11:00,
2013-08-30 16:22:00,99.0,70.0,29.93,West,263,0.0,3.0,39,0.00,,,0.00,,2013-08-30 21:22:00,
2013-08-30 16:55:00,100.0,71.0,29.93,East,86,0.0,1.0,39,0.00,,,0.00,,2013-08-30 21:55:00,
2013-08-30 17:13:00,99.0,70.0,29.93,ENE,72,2.0,3.0,39,0.00,,,0.00,,2013-08-30 22:13:00,
2013-08-30 17:24:00,99.0,71.0,29.93,ESE,114,0.0,2.0,41,0.00,,,0.00,,2013-08-30 22:24:00,
2013-08-30 17:54:00,100.0,72.0,29.93,ESE,115,0.0,2.0,41,0.00,,,0.00,,2013-08-30 22:54:00,
2013-08-30 18:12:00,97.0,71.0,29.92,ESE,105,1.0,3.0,44,0.00,,,0.00,,2013-08-30 23:12:00,
2013-08-30 18:22:00,96.0,71.0,29.92,East,98,0.0,3.0,45,0.00,,,0.00,,2013-08-30 23:22:00,
2013-08-30 18:53:00,93.0,72.0,29.92,ENE,70,0.0,2.0,51,0.00,,,0.00,,2013-08-30 23:53:00,
2013-08-30 19:11:00,92.0,72.0,29.92,ENE,70,0.0,0.0,52,0.00,,,0.00,,2013-08-31 00:11:00,
2013-08-30 19:22:00,91.0,72.0,29.92,ENE,70,0.0,0.0,54,0.00,,,0.00,,2013-08-31 00:22:00,
2013-08-30 19:42:00,90.0,72.0,29.92,ENE,70,0.0,0.0,56,0.00,,,0.00,,2013-08-31 00:42:00,
2013-08-30 19:52:00,89.0,72.0,29.92,ENE,70,0.0,0.0,58,0.00,,,0.00,,2013-08-31 00:52:00,
2013-08-30 20:11:00,87.0,72.0,29.91,ENE,70,0.0,0.0,61,0.00,,,0.00,,2013-08-31 01:11:00,
2013-08-30 20:22:00,86.0,72.0,29.91,ENE,70,0.0,0.0,64,0.00,,,0.00,,2013-08-31 01:22:00,
2013-08-30 20:42:00,85.0,72.0,29.92,ENE,70,0.0,0.0,66,0.00,,,0.00,,2013-08-31 01:42:00,
2013-08-30 20:52:00,84.0,73.0,29.91,ENE,70,0.0,0.0,69,0.00,,,0.00,,2013-08-31 01:52:00,
2013-08-30 21:12:00,83.0,73.0,29.92,ENE,70,0.0,0.0,73,0.00,,,0.00,,2013-08-31 02:12:00,
2013-08-30 21:22:00,83.0,75.0,29.92,ENE,70,0.0,0.0,76,0.00,,,0.00,,2013-08-31 02:22:00,
2013-08-30 21:42:00,82.0,74.0,29.92,ENE,70,0.0,0.0,77,0.00,,,0.00,,2013-08-31 02:42:00,
2013-08-30 21:52:00,81.0,74.0,29.92,ENE,70,0.0,0.0,79,0.00,,,0.00,,2013-08-31 02:52:00,
2013-08-30 22:12:00,81.0,74.0,29.92,ENE,71,0.0,0.0,79,0.00,,,0.00,,2013-08-31 03:12:00,
2013-08-30 22:22:00,80.0,73.0,29.92,ENE,70,0.0,0.0,80,0.00,,,0.00,,2013-08-31 03:22:00,
2013-08-30 22:44:00,80.0,74.0,29.92,ENE,70,0.0,0.0,81,0.00,,,0.00,,2013-08-31 03:44:00,
2013-08-30 22:54:00,80.0,74.0,29.92,ENE,70,0.0,0.0,81,0.00,,,0.00,,2013-08-31 03:54:00,
2013-08-30 23:14:00,79.0,73.0,29.92,ENE,70,0.0,0.0,82,0.00,,,0.00,,2013-08-31 04:14:00,
2013-08-30 23:24:00,79.0,73.0,29.92,ENE,70,0.0,0.0,83,0.00,,,0.00,,2013-08-31 04:24:00,
2013-08-30 23:44:00,79.0,74.0,29.91,ENE,70,0.0,0.0,85,0.00,,,0.00,,2013-08-31 04:44:00,
2013-08-30 23:54:00,78.0,73.0,29.91,ENE,70,0.0,0.0,85,0.00,,,0.00,,2013-08-31 04:54:00,